This is the latest recevied weather packets stored in our database for station/object BV3BA-13. If no packets are shown the sender has not sent any weather packets the latest 10 day(s).
| Time | Temp. | Humidity | Pressure | Rain* | Wind** | Luminosity | Snow |
|---|---|---|---|---|---|---|---|
| 1777981024 | 21.11° C | 98% | 1010.6 hPa | 3.05 mm | - | - | - |
| 1777980424 | 21.11° C | 98% | 1010.6 hPa | 2.54 mm | - | - | - |
| 1777979825 | 20.56° C | 98% | 1010.2 hPa | 0.51 mm | - | - | - |
| 1777979223 | 21.11° C | 97% | 1010 hPa | 1.02 mm | - | - | - |
| 1777978623 | 21.11° C | 97% | 1009.8 hPa | 1.02 mm | - | - | - |
| 1777978025 | 21.11° C | 96% | 1009.6 hPa | 1.52 mm | - | - | - |
| 1777977423 | 21.11° C | 96% | 1009.4 hPa | 1.52 mm | - | - | - |
| 1777976823 | 21.11° C | 97% | 1009.4 hPa | 1.02 mm | - | - | - |
| 1777976224 | 21.11° C | 97% | 1010.2 hPa | 2.03 mm | - | - | - |
| 1777975624 | 21.11° C | 97% | 1010.1 hPa | 2.03 mm | - | - | - |
| 1777975023 | 21.11° C | 97% | 1010.3 hPa | 3.05 mm | - | - | - |
| 1777974424 | 21.11° C | 97% | 1010.5 hPa | 3.05 mm | - | - | - |
| 1777973823 | 21.11° C | 98% | 1010.2 hPa | 3.56 mm | - | - | - |
| 1777973224 | 21.11° C | 97% | 1010.2 hPa | 3.56 mm | - | - | - |
| 1777972623 | 21.11° C | 96% | 1010.1 hPa | 2.54 mm | - | - | - |
| 1777972024 | 21.11° C | 96% | 1010 hPa | 2.03 mm | - | - | - |
| 1777971424 | 21.11° C | 95% | 1010 hPa | 1.02 mm | - | - | - |
| 1777970823 | 21.11° C | 94% | 1009.8 hPa | 0.51 mm | - | - | - |
| 1777970224 | 21.11° C | 94% | 1009.8 hPa | 0.51 mm | - | - | - |
| 1777969624 | 21.11° C | 95% | 1009.8 hPa | 1.02 mm | - | - | - |
| 1777969024 | 21.11° C | 94% | 1009.9 hPa | 1.52 mm | - | - | - |
| 1777968424 | 21.11° C | 95% | 1009.8 hPa | 1.52 mm | - | - | - |
| 1777967824 | 21.11° C | 94% | 1009.8 hPa | 1.52 mm | - | - | - |
| 1777967224 | 21.11° C | 95% | 1009.9 hPa | 1.52 mm | - | - | - |
| 1777966624 | 21.11° C | 93% | 1009.9 hPa | 1.02 mm | - | - | - |
* Rain latest hour (hover to see other rain measurements)
** Current wind speed in m/s (hover to see current wind gust speed)